This demonstration page uses our WeatherBlox Daily Observations layout. Learn more.

Left ArrowRight Arrow

36.19886, -115.1175

Hourly Observations for October 22, 2020

Temp ( °F °C ) Dew Point ( °F °C ) Humidity (%) Winds ( mph kmh ) Pressure ( in mb ) Visibility ( mi km ) Precip ( " mm )
12:53 am 00:53 Clear 67 19.4 30 -1.1 25 25 W 3 6 29.73 1007 10 16 0.00 0.00
1:53 am 01:53 Clear 66 18.9 25 -3.9 21 21 NNW 7 11 29.73 1007 10 16 0.00 0.00
2:53 am 02:53 Clear 64 17.8 23 -5 21 21 WNW 7 11 29.73 1007 10 16 0.00 0.00
3:53 am 03:53 Clear 64 17.8 24 -4.4 22 22 WNW 7 11 29.72 1007 10 16 0.00 0.00
4:53 am 04:53 Clear 61 16.1 24 -4.4 24 24 WNW 6 9 29.74 1007 10 16 0.00 0.00
5:53 am 05:53 Clear 62 16.7 26 -3.3 25 25 NW 7 11 29.75 1007 10 16 0.00 0.00
6:53 am 06:53 Clear 61 16.1 26 -3.3 26 26 WNW 6 9 29.76 1008 10 16 0.00 0.00
7:53 am 07:53 Sunny 63 17.2 27 -2.8 26 26 NW 6 9 29.78 1009 10 16 0.00 0.00
8:53 am 08:53 Sunny 70 21.1 27 -2.8 20 20 NW 3 6 29.80 1009 10 16 0.00 0.00
9:53 am 09:53 Sunny 77 25 26 -3.3 15 15 NNE 5 7 29.80 1009 10 16 0.00 0.00
10:53 am 10:53 Sunny 78 25.6 25 -3.9 14 14 E 3 6 29.80 1009 10 16 0.00 0.00
11:53 am 11:53 Sunny 81 27.2 25 -3.9 13 13 Calm 29.80 1009 10 16 0.00 0.00
12:53 pm 12:53 Sunny 83 28.3 26 -3.3 12 12 ENE 5 7 29.78 1008 10 16 0.00 0.00
1:53 pm 13:53 Sunny 86 30 25 -3.9 11 11 ESE 5 7 29.75 1008 10 16 0.00 0.00
2:53 pm 14:53 Sunny 88 31.1 25 -3.9 10 10 NNE 3 6 29.74 1007 10 16 0.00 0.00
3:53 pm 15:53 Sunny 88 31.1 26 -3.3 10 10 Calm 29.74 1007 10 16 0.00 0.00
4:53 pm 16:53 Sunny 88 31.1 25 -3.9 10 10 Calm 29.73 1007 10 16 0.00 0.00
5:53 pm 17:53 Sunny 85 29.4 26 -3.3 12 12 ENE 5 7 29.73 1007 10 16 0.00 0.00
6:53 pm 18:53 Clear 80 26.7 31 -0.6 17 17 NE 6 9 29.75 1007 10 16 0.00 0.00
7:53 pm 19:53 Clear 77 25 30 -1.1 18 18 WNW 7 11 29.77 1008 10 16 0.00 0.00
8:53 pm 20:53 Clear 74 23.3 29 -1.7 19 19 NNW 6 9 29.78 1008 10 16 0.00 0.00
9:53 pm 21:53 Clear 72 22.2 28 -2.2 19 19 WNW 6 9 29.79 1009 10 16 0.00 0.00
10:53 pm 22:53 Clear 69 20.6 29 -1.7 22 22 NW 6 9 29.80 1009 10 16 0.00 0.00
11:53 pm 23:53 Clear 70 21.1 27 -2.8 20 20 Calm 29.81 1009 10 16 0.00 0.00

Powered by AerisWeather